Weather in North York

Canada     43°46′54″N   79°24′44″W
temp.,
°C
wind,
m/s
gust,
m/s
humid.,
%
clouds,
%
prec.,
mm/h
press.,
hPa
HPBL,
m
22 april, thu
thu2223:00−1nw48466 0.0 10151073
02:000wnw4850100 0.0 1014956
05:000wnw495295 0.0 10131050
08:000wnw595499 0.0 1014932
11:00+4wnw6933100 0.0 10142489
14:00+6wnw71027100 0.0 10132849
17:00+6wnw7928100 0.0 10132650
20:00+4wnw59390 0.0 10141112
23 april, fri
fri2323:00+2w412473 0.0 1015480
02:00+2w311455 0.0 1015384
05:00+1w312490 0.0 1016386
08:00+3wsw312524 0.0 1015406
11:00+11w59446 0.0 10141072
14:00+16wnw6113364 0.0 10132467
17:00+16w6103755 0.0 10132484
20:00+12w49485 0.0 1014978
24 april, sat
sat2423:00+9w4126095 0.0 1016595
02:00+8w3106683 0.0 1016384
05:00+7w11735 0.0 101620
08:00+8sw116698 0.0 1016120
11:00+12ssw2449100 0.0 1015860
14:00+15s4540100 0.0 10131783
17:00+13ssw4551100 0.0 10121358
20:00+9sse2488100 3.4 1010447
25 april, sun
sun2523:00+7se3594100 3.9 1009354
02:00+7sse1296100 4.9 1007247
05:00+8w2895100 0.6 1006510
08:00+8wnw4987100 0.7 1006579
11:00+7wnw6108289 0.1 1009745
14:00+8wnw7105759 0.1 10101245
17:00+8nw7115186 0.0 10121434
20:00+6nw613515 0.0 10151413
26 april, mon
mon2623:00+4nw41160100 0.0 10181028
02:00+2nw51163100 0.0 1019723
05:00+1nnw5126779 0.0 1021590
08:00+2nnw510590 0.0 1023563
11:00+7nnw46345 0.0 1022861
14:00+12nw34245 0.0 10211175
17:00+13nnw34245 0.0 10201173
20:00+10nne2333100 0.0 1020210